sat.trackr.live / text

‹ back to catalog

UNKNOWN

NORAD 81865

UNKNOWN UNKNOWN UNKNOWN

§ Identity

Operator
Country
Launch date
Launch site
Launch vehicle
Mass (kg)
RCS (m²)

External: N2YO · Heavens-Above

§ Orbital elements

Epoch: 2026-09-15T12:38:54.254976Z

Period
103.70 min
Inclination
82.8074°
Eccentricity
0.0061046
Mean motion
13.88670481 rev/d
Perigee alt
888.7 km
Apogee alt
977.9 km
Semi-major
7,311.4 km
B*
6.9455e-4
RAAN
174.8648°
Arg perigee
298.5220°
Mean anomaly
182.0523°
Rev number
64,695

§ Raw data

UNKNOWN1 81865U          26258.52701684  .00000863  00000+0  69455-3 0  99922 81865  82.8074 174.8648 0061046 298.5220 182.0523 13.88670481646959

JSON: /api/v1/satellites/81865 · /tle

For live sub-satellite position, see the globe view (requires WebGL).

§ Visibility from observer

Set your observer location to see the next 7 days of passes ≥ 10°. The values pass through the URL so the page stays shareable.

No JS? Fill the form by hand. The geolocation button needs JavaScript.